Change the Weather History Date:

Monday, November 25, 2013

  Actual Average (KRBD) Record (KRBD)
Temperature  
Mean Temperature 32 °F -  
Max Temperature 33 °F 60 °F 75 °F (2010)
Min Temperature 32 °F 42 °F 30 °F (1996)
Degree Days  
Heating Degree Days 32    
Moisture  
Dew Point 30 °F    
Average Humidity 93    
Maximum Humidity 99    
Minimum Humidity 78    
Precipitation  
Precipitation 0.39 in - - ()
Sea Level Pressure  
Sea Level Pressure 30.31 in    
Wind  
Wind Speed 1 mph (ENE)    
Max Wind Speed 5 mph    
Max Gust Speed -    
Visibility 6 miles    
Events Rain , Snow    
Averages and records for this station are not official NWS values.
T = Trace of Precipitation, MM = Missing Value Source: NWS Daily Summary

Daily Weather History Graph

Daily Weather History Graph

Search for Another Location

Airport or City:

Trip Planner

Search our weather history database for the weather conditions in past years. The results will help you decide how hot, cold, wet, or windy it might be!

Date:

Astronomy

Nov. 25, 2013 Rise Set
Actual Time 7:05 AM CST 5:21 PM CST
Civil Twilight 6:39 AM CST 5:48 PM CST
Nautical Twilight 6:09 AM CST 6:18 PM CST
Astronomical Twilight 5:39 AM CST 6:48 PM CST
Moon No Moon Rise 12:36 PM CST (11/25)
Length of Visible Light 11h 09m
Length of Day
10h 15m
Waning Gibbous, 51% of the Moon is Illuminated
Nov 25
Waning Gibbous
Nov 25
Last Quarter
Dec 2
New
Dec 9
First Quarter
Dec 17
Full

Hourly Weather History & Observations

Time (CST) Temp. Windchill Dew Point Humidity Pressure Visibility Wind Dir Wind Speed Gust Speed Precip Events Conditions
12:15 AM 33.6 °F - 27.3 °F 78% 30.36 in 10.0 mi Calm Calm - N/A   Overcast
12:35 AM 33.8 °F - 28.2 °F 80% 30.37 in 10.0 mi Calm Calm - N/A Rain Light Rain
12:55 AM 33.1 °F 28.7 °F 28.6 °F 84% 30.35 in 10.0 mi East 4.6 mph - 0.01 in Rain Rain
1:15 AM 32.9 °F 28.5 °F 29.5 °F 87% 30.33 in 4.0 mi East 4.6 mph - 0.02 in Rain Rain
1:35 AM 32.2 °F 27.7 °F 29.8 °F 91% 30.32 in 4.0 mi East 4.6 mph - 0.04 in Rain Rain
1:55 AM 32.0 °F - 30.0 °F 92% 30.35 in 1.8 mi Calm Calm - 0.08 in Rain Light Rain
2:15 AM 32.0 °F - 30.9 °F 96% 30.33 in 4.0 mi Calm Calm - 0.02 in Rain Rain
2:35 AM 32.0 °F - 31.1 °F 96% 30.32 in 3.0 mi Calm Calm - 0.08 in Snow Light Snow
2:55 AM 32.0 °F 28.7 °F 31.3 °F 97% 30.30 in 5.0 mi East 3.5 mph - 0.10 in Rain Rain
3:15 AM 32.0 °F - 31.1 °F 96% 30.32 in 7.0 mi Calm Calm - 0.01 in   Light Drizzle
3:35 AM 32.0 °F - 31.1 °F 96% 30.31 in 10.0 mi Calm Calm - 0.01 in   Drizzle
3:55 AM 32.0 °F - 30.7 °F 95% 30.30 in 4.0 mi Calm Calm - 0.02 in Rain Rain
4:15 AM 32.0 °F 28.7 °F 30.7 °F 95% 30.29 in 4.0 mi NE 3.5 mph - 0.02 in Rain Rain
4:35 AM 32.0 °F - 31.5 °F 98% 30.30 in 4.0 mi Calm Calm - 0.06 in Rain Rain
4:55 AM 32.0 °F 28.7 °F 31.1 °F 96% 30.30 in 4.0 mi North 3.5 mph - 0.10 in Rain Rain
5:15 AM 32.0 °F - 31.5 °F 98% 30.29 in 3.0 mi Calm Calm - 0.04 in Rain Rain
5:35 AM 32.0 °F 28.7 °F 31.1 °F 96% 30.29 in 7.0 mi North 3.5 mph - 0.05 in Rain Rain
5:55 AM 32.0 °F - 31.1 °F 96% 30.29 in 7.0 mi Calm Calm - 0.05 in Rain Light Rain
6:15 AM 32.0 °F - 31.6 °F 99% 30.29 in 4.0 mi Calm Calm - 0.02 in Rain Light Rain
6:35 AM 32.0 °F - 31.6 °F 99% 30.28 in 4.0 mi Calm Calm - 0.03 in Rain Light Rain